Regional Weather Roundup
Issued by NWS

Home | Current Version | Previous Version | Graphics & Text | Print | Product List | Glossary On
Versions: 1 2 3 4 5 6 7 8 9 10 11 12 13 14 15 16 17 18 19 20 21 22 23 24 25 26 27 28 29 30 31 32 33 34 35 36 37 38 39 40 41 42 43 44 45 46 47 48 49 50
000
ASUS43 KMKX 140121
RWRWI

WISCONSIN REGIONAL WEATHER ROUNDUP
NATIONAL WEATHER SERVICE MILWAUKEE/SULLIVAN WI
800 PM CDT SUN JUL 13 2014

NOTE: "FAIR" INDICATES FEW OR NO CLOUDS BELOW 12,000 FEET WITH NO
SIGNIFICANT WEATHER AND/OR OBSTRUCTIONS TO VISIBILITY.

WIZ001-002-006>008-014>016-023>028-140200-
NORTHWEST WISCONSIN

CITY           SKY/WX    TMP DP  RH WIND       PRES   REMARKS
SUPERIOR ARPT  CLOUDY    66  48  52 W10       29.84S
ASHLAND        CLOUDY    65  51  60 W5        29.85R
HAYWARD        CLOUDY    67  49  52 VRB3      29.87R
SIREN          CLOUDY    68  50  52 W3        29.88S
RICE LAKE      CLOUDY    66  48  52 W3        29.90S
LADYSMITH      CLOUDY    67  51  55 W7        29.90R
EAU CLAIRE     MOCLDY    70  54  56 W5        29.87S
MENOMONIE      PTCLDY    70  52  53 W3        29.88S
NEW RICHMOND   PTCLDY    68  51  52 NW6       29.90R
OSCEOLA        CLEAR     70  45  40 W9        29.92R
$$

WIZ003>005-009-010-017-018-140200-
NORTH CENTRAL WISCONSIN

CITY           SKY/WX    TMP DP  RH WIND       PRES   REMARKS
WOODRUFF       CLOUDY    64  47  52 CALM      29.88R
RHINELANDER    CLOUDY    64  49  57 W7        29.89R
EAGLE RIVER    MOCLDY    63  47  55 SW3       29.87S
LAND O LAKES   CLOUDY    63  50  63 SW3       29.87S
PHILLIPS       CLOUDY    64  51  61 CALM      29.87S
TOMAHAWK       CLOUDY    64  51  62 CALM      29.89S
MEDFORD        CLEAR     65  51  60 SW3       29.89S
MERRILL        CLOUDY    66  52  60 W3        29.88S
$$

WIZ029-030-035-036-043>047-140200-
CENTRAL WISCONSIN

CITY           SKY/WX    TMP DP  RH WIND       PRES   REMARKS
WAUSAU         MOCLDY    69  48  47 W7        29.87S
MOSINEE        CLEAR     66  52  59 W5        29.89F
MARSHFIELD     CLEAR     68  51  54 W5        29.89S
STEVENS POINT  CLEAR     69  48  47 W3        29.89S
WAUPACA        CLEAR     71  49  45 W3        29.89S
WAUTOMA        CLEAR     72  49  44 NW7       29.90R
WISC RAPIDS    CLEAR     70  48  45 W3        29.90S
CAMP DOUGLAS   CLEAR     70  56  62 NW2       29.90S
$$

WIZ011>013-019>022-031-037>040-048>050-140200-
NORTHEAST WISCONSIN

CITY           SKY/WX    TMP DP  RH WIND       PRES   REMARKS
ANTIGO         MOCLDY    63  52  67 W5        29.89F
STURGEON BAY   CLEAR     70  48  46 W3        29.86F
GREEN BAY      CLEAR     71  50  47 W6        29.87R
MANITOWOC      CLEAR     72  46  39 NW6       29.87R
APPLETON       CLEAR     70  43  37 NW7       29.89S
CLINTONVILLE   CLEAR     70  45  40 W3        29.87S
OSHKOSH        CLEAR     72  50  45 NW8       29.88R
$$

WIZ032>034-041-042-053>061-140200-
SOUTHWEST WISCONSIN

CITY           SKY/WX    TMP DP  RH WIND       PRES   REMARKS
LA CROSSE      CLEAR     74  54  49 W5        29.88F
SPARTA         CLEAR     71  50  46 CALM      29.91S
VIROQUA        FAIR      68  53  56 CALM      29.92S
BOSCOBEL       CLEAR     74  57  55 CALM      29.91R
PRAIRIE DU CHI CLEAR     74  55  52 CALM      29.90R
PLATTEVILLE    FAIR      72  57  58 NW6       29.93S
$$

WIZ056-057-062-063-064-067-068-140200-
SOUTH CENTRAL WISCONSIN

CITY           SKY/WX    TMP DP  RH WIND       PRES   REMARKS
BARABOO/DELLS  CLEAR     71  51  48 CALM      29.91R
LONE ROCK      CLEAR     75  54  47 W7        29.90S
WATERTOWN      PTCLDY    72  58  60 NW6       29.89R
MADISON        MOCLDY    75  58  55 NW6       29.90R
MIDDLETON      MOCLDY    74  57  56 NW7       29.90S
MONROE         CLEAR     72  54  53 NW10      29.92R
JANESVILLE     PTCLDY    77  55  47 W12       29.89R
$$

WIZ051-052-058>065-066-070>072-140200-
SOUTHEAST WISCONSIN

CITY           SKY/WX    TMP DP  RH WIND       PRES   REMARKS
MILWAUKEE      PTCLDY    72  60  66 CALM      29.88R
WAUKESHA       PTCLDY    72  55  56 NW9       29.90R
MILWAUKEE/TIMM PTCLDY    75  55  50 NW6       29.88R
RACINE         PTCLDY    73  61  65 NE6       29.89R
BURLINGTON     CLEAR     72  61  66 W3        29.89R
KENOSHA        PTCLDY    74  65  73 W6        29.88R
FOND DU LAC    CLEAR     71  49  45 NW8       29.89R
SHEBOYGAN      CLEAR     71  50  47 NW6       29.87S
WEST BEND      CLOUDY    73  52  46 W8        29.89R
JUNEAU         CLEAR     71  35  26 CALM      29.91R
$$

LSZ147-162-140200-
LAKE SUPERIOR

STATION/POSITION TIME  TEMP    WIND        PRES    WAVE
                       AIR SEA DIR/SP/G            HT/PER
                 (UTC) (F)     (DEG/KT/KT) (MB)    (FT/S)
W MID LAKE BUOY  0050   48 38  240/  6/  6 1009.6R   2/ 4
PORT WING        0000   65     250/  9/ 13 1010.2
SAXON HARBOR     0040           CALM  /  3 1010.5R
$$

LMZ867-665-643>646-140200-
LAKE MICHIGAN

STATION/POSITION TIME  TEMP    WIND        PRES    WAVE
                       AIR SEA DIR/SP/G            HT/PER
                 (UTC) (F)     (DEG/KT/KT) (MB)    (FT/S)
N MID LAKE BUOY  0050   61 59  190/  8/  8 1010.2R   1
NORTHPORT PIER   0000   68     160/  6/  9 1010.5R
KEWAUNEE LAKESHO 0100   73     280/  2/  4 1011.9R
SHEBOYGAN LAKESH 0100   76     340/  6/  7 1011.3R
PORT WASHINGTON  0000   80     300/  4/  6 1011.5S
MILWAUKEE LAKESH 0100   67      10/  1/  3   N/A
S MID LAKE BUOY  0050   67 65  270/  4/  6 1011.4R   1
KENOSHA   LAKESH 0100   80     290/  7/ 10   N/A
$$

TC  - TEMPERATURE IN CELSIUS
VSB - VISIBILITY IN STATUTE MILES
WCI - WIND CHILL INDEX
HX  - HEAT INDEX



USA.gov is the U.S. government's official web portal to all federal, state and local government web resources and services.